| time (UTC) | temp F | wind direction | speed MPH | gust MPH | rain 1hr in | rain 24hr in | rain mn in | humidity % | barometer mb |
| 20260504050303 | 48 | 102 | 2.0 | 3.0 | 0.00 | 0.03 | 0.00 | 87 | 1009.1 |
| 20260504045803 | 48 | 93 | 2.0 | 3.0 | 0.00 | 0.03 | 0.00 | 87 | 1009.1 |
| 20260504045304 | 48 | 92 | 2.0 | 2.0 | 0.00 | 0.03 | 0.00 | 87 | 1009.0 |
| 20260504044303 | 48 | 79 | 2.0 | 2.0 | 0.00 | 0.03 | 0.00 | 86 | 1009.2 |
| 20260504043803 | 48 | 82 | 2.0 | 3.0 | 0.00 | 0.03 | 0.00 | 86 | 1009.2 |
| 20260504043303 | 48 | 70 | 2.0 | 3.0 | 0.00 | 0.03 | 0.00 | 85 | 1009.3 |
| 20260504042803 | 48 | 74 | 2.0 | 3.0 | 0.00 | 0.03 | 0.00 | 85 | 1009.1 |
| 20260504042304 | 48 | 80 | 2.0 | 3.0 | 0.00 | 0.03 | 0.00 | 84 | 1009.2 |
| 20260504041803 | 48 | 105 | 2.0 | 3.0 | 0.00 | 0.03 | 0.00 | 84 | 1009.1 |
| 20260504041303 | 48 | 87 | 3.0 | 3.0 | 0.00 | 0.03 | 0.00 | 84 | 1009.2 |
| 20260504040803 | 48 | 80 | 2.0 | 3.0 | 0.00 | 0.03 | 0.00 | 83 | 1009.3 |
| 20260504035804 | 48 | 67 | 2.0 | 3.0 | 0.00 | 0.03 | 0.03 | 83 | 1009.2 |
| 20260504035305 | 48 | 75 | 2.0 | 3.0 | 0.00 | 0.03 | 0.03 | 83 | 1009.4 |
| 20260504034303 | 48 | 150 | 1.0 | 2.0 | 0.00 | 0.03 | 0.03 | 83 | 1009.4 |
| 20260504033303 | 48 | 84 | 2.0 | 7.0 | 0.00 | 0.03 | 0.03 | 84 | 1009.3 |
| 20260504032803 | 48 | 110 | 3.0 | 7.0 | 0.00 | 0.03 | 0.03 | 84 | 1009.5 |
| 20260504032304 | 48 | 144 | 3.0 | 5.0 | 0.00 | 0.03 | 0.03 | 84 | 1009.6 |
| 20260504031303 | 48 | 71 | 2.0 | 3.0 | 0.00 | 0.03 | 0.03 | 83 | 1009.8 |
| 20260504030303 | 48 | 87 | 0.0 | 3.0 | 0.00 | 0.03 | 0.03 | 83 | 1009.6 |
| 20260504025803 | 48 | 145 | 1.0 | 3.0 | 0.00 | 0.03 | 0.03 | 82 | 1009.4 |
| 20260504025304 | 48 | 113 | 2.0 | 5.0 | 0.00 | 0.03 | 0.03 | 81 | 1009.6 |
| 20260504024803 | 48 | 120 | 3.0 | 5.0 | 0.00 | 0.03 | 0.03 | 81 | 1009.5 |
| 20260504024304 | 49 | 128 | 2.0 | 3.0 | 0.01 | 0.03 | 0.03 | 80 | 1009.6 |
| 20260504023303 | 49 | 125 | 2.0 | 3.0 | 0.01 | 0.03 | 0.03 | 79 | 1009.8 |
| 20260504022804 | 49 | 118 | 2.0 | 3.0 | 0.02 | 0.03 | 0.03 | 79 | 1010.1 |
| 20260504022304 | 49 | 101 | 1.0 | 3.0 | 0.02 | 0.03 | 0.03 | 78 | 1010.3 |
| 20260504021804 | 49 | 53 | 2.0 | 3.0 | 0.02 | 0.03 | 0.03 | 77 | 1010.5 |
| 20260504021304 | 50 | 20 | 1.0 | 5.0 | 0.02 | 0.03 | 0.03 | 76 | 1010.4 |
| 20260504020803 | 50 | 235 | 2.0 | 7.0 | 0.02 | 0.03 | 0.03 | 75 | 1010.2 |
| 20260504020302 | 50 | 257 | 4.0 | 7.0 | 0.02 | 0.03 | 0.03 | 75 | 1010.3 |
| 20260504015803 | 50 | 243 | 4.0 | 10.0 | 0.02 | 0.03 | 0.03 | 75 | 1010.3 |
| 20260504015304 | 50 | 266 | 4.0 | 10.0 | 0.02 | 0.03 | 0.03 | 74 | 1010.5 |
| 20260504014803 | 50 | 260 | 5.0 | 15.0 | 0.01 | 0.02 | 0.02 | 74 | 1010.5 |
| 20260504014303 | 50 | 285 | 7.0 | 17.0 | 0.01 | 0.02 | 0.02 | 72 | 1010.5 |
| 20260504013804 | 51 | 277 | 9.0 | 25.0 | 0.02 | 0.02 | 0.02 | 70 | 1010.7 |
| 20260504012803 | 52 | 242 | 9.0 | 20.0 | 0.01 | 0.01 | 0.01 | 65 | 1010.7 |
| 20260504012305 | 52 | 278 | 6.0 | 15.0 | 0.01 | 0.01 | 0.01 | 64 | 1010.7 |
| 20260504011803 | 52 | 273 | 4.0 | 24.0 | 0.01 | 0.01 | 0.01 | 63 | 1010.4 |
| 20260504011305 | 52 | 259 | 12.0 | 24.0 | 0.01 | 0.01 | 0.01 | 61 | 1010.2 |
| 20260504010805 | 52 | 274 | 10.0 | 20.0 | 0.01 | 0.01 | 0.01 | 61 | 1010.2 |
| 20260504010304 | 52 | 289 | 7.0 | 29.0 | 0.01 | 0.01 | 0.01 | 60 | 1010.0 |
| 20260504005803 | 53 | 305 | 13.0 | 29.0 | 0.01 | 0.01 | 0.01 | 57 | 1009.9 |
| 20260504005304 | 52 | 287 | 7.0 | 22.0 | 0.01 | 0.01 | 0.01 | 57 | 1010.0 |
| 20260504004803 | 52 | 257 | 3.0 | 17.0 | 0.01 | 0.01 | 0.01 | 64 | 1009.9 |
| 20260504004302 | 52 | 278 | 12.0 | 26.0 | 0.01 | 0.01 | 0.01 | 60 | 1009.8 |
| 20260504003803 | 53 | 260 | 4.0 | 26.0 | 0.00 | 0.00 | 0.00 | 57 | 1009.9 |
| 20260504003304 | 54 | 266 | 19.0 | 26.0 | 0.00 | 0.00 | 0.00 | 53 | 1009.5 |
| 20260504002803 | 54 | 257 | 10.0 | 23.0 | 0.00 | 0.00 | 0.00 | 50 | 1009.7 |
| 20260504002304 | 55 | 252 | 4.0 | 18.0 | 0.00 | 0.00 | 0.00 | 46 | 1009.4 |
| 20260504001803 | 54 | 247 | 9.0 | 18.0 | 0.00 | 0.00 | 0.00 | 44 | 1009.3 |
| 20260504001303 | 54 | 39 | 2.0 | 7.0 | 0.00 | 0.00 | 0.00 | 49 | 1009.2 |
| 20260504000803 | 54 | 253 | 5.0 | 14.0 | 0.00 | 0.00 | 0.00 | 46 | 1009.2 |
| 20260504000304 | 54 | 176 | 1.0 | 3.0 | 0.00 | 0.00 | 0.00 | 45 | 1009.1 |
| 20260503235804 | 54 | 201 | 1.0 | 5.0 | 0.00 | 0.00 | 0.00 | 44 | 1009.1 |
| 20260503235304 | 54 | 189 | 2.0 | 3.0 | 0.00 | 0.00 | 0.00 | 45 | 1009.2 |
| 20260503234303 | 54 | 201 | 1.0 | 5.0 | 0.00 | 0.00 | 0.00 | 45 | 1009.0 |
| 20260503233803 | 54 | 268 | 3.0 | 9.0 | 0.00 | 0.00 | 0.00 | 44 | 1009.0 |
| 20260503232803 | 54 | 291 | 2.0 | 13.0 | 0.00 | 0.00 | 0.00 | 45 | 1009.3 |
| 20260503232305 | 54 | 241 | 8.0 | 15.0 | 0.00 | 0.00 | 0.00 | 45 | 1009.7 |
| 20260503231303 | 55 | 260 | 11.0 | 32.0 | 0.00 | 0.00 | 0.00 | 42 | 1009.8 |
| 20260503230804 | 55 | 278 | 14.0 | 25.0 | 0.00 | 0.00 | 0.00 | 41 | 1009.9 |
| 20260503230303 | 56 | 301 | 9.0 | 23.0 | 0.00 | 0.00 | 0.00 | 40 | 1009.9 |
| 20260503225803 | 56 | 267 | 9.0 | 13.0 | 0.00 | 0.00 | 0.00 | 39 | 1009.6 |
| 20260503225304 | 56 | 312 | 4.0 | 13.0 | 0.00 | 0.00 | 0.00 | 38 | 1009.6 |
| 20260503224803 | 56 | 264 | 5.0 | 16.0 | 0.00 | 0.00 | 0.00 | 38 | 1009.8 |
| 20260503223803 | 56 | 298 | 4.0 | 14.0 | 0.00 | 0.00 | 0.00 | 37 | 1009.6 |
| 20260503223304 | 56 | 260 | 5.0 | 14.0 | 0.00 | 0.00 | 0.00 | 36 | 1009.3 |
| 20260503222804 | 56 | 283 | 8.0 | 10.0 | 0.00 | 0.00 | 0.00 | 36 | 1009.3 |
| 20260503222304 | 56 | 277 | 3.0 | 12.0 | 0.00 | 0.00 | 0.00 | 37 | 1009.3 |
| 20260503221803 | 56 | 252 | 4.0 | 13.0 | 0.00 | 0.00 | 0.00 | 38 | 1009.3 |
| 20260503220803 | 56 | 226 | 6.0 | 12.0 | 0.00 | 0.00 | 0.00 | 37 | 1009.4 |
| 20260503220304 | 56 | 276 | 5.0 | 12.0 | 0.00 | 0.00 | 0.00 | 37 | 1009.5 |
| 20260503215802 | 56 | 256 | 7.0 | 12.0 | 0.00 | 0.00 | 0.00 | 38 | 1009.5 |
| 20260503214803 | 56 | 236 | 7.0 | 14.0 | 0.00 | 0.00 | 0.00 | 37 | 1009.5 |
| 20260503214303 | 56 | 249 | 6.0 | 12.0 | 0.00 | 0.00 | 0.00 | 38 | 1009.5 |
| 20260503213803 | 56 | 279 | 5.0 | 12.0 | 0.00 | 0.00 | 0.00 | 39 | 1009.6 |
| 20260503213303 | 56 | 268 | 5.0 | 14.0 | 0.00 | 0.00 | 0.00 | 39 | 1009.5 |
| 20260503212803 | 56 | 265 | 6.0 | 12.0 | 0.00 | 0.00 | 0.00 | 38 | 1009.4 |
| 20260503212305 | 56 | 225 | 5.0 | 14.0 | 0.00 | 0.00 | 0.00 | 40 | 1009.4 |
| 20260503211304 | 55 | 250 | 7.0 | 14.0 | 0.00 | 0.00 | 0.00 | 39 | 1009.4 |
| 20260503210803 | 55 | 249 | 7.0 | 22.0 | 0.00 | 0.00 | 0.00 | 40 | 1009.6 |
| 20260503210303 | 55 | 225 | 10.0 | 18.0 | 0.00 | 0.00 | 0.00 | 39 | 1009.8 |
| 20260503205803 | 56 | 249 | 12.0 | 16.0 | 0.00 | 0.00 | 0.00 | 39 | 1009.6 |
| 20260503205304 | 55 | 270 | 8.0 | 16.0 | 0.00 | 0.00 | 0.00 | 38 | 1009.7 |
| 20260503204803 | 55 | 272 | 7.0 | 16.0 | 0.00 | 0.00 | 0.00 | 37 | 1009.8 |
| 20260503204303 | 55 | 233 | 9.0 | 17.0 | 0.00 | 0.00 | 0.00 | 38 | 1009.7 |
| 20260503203804 | 55 | 253 | 10.0 | 17.0 | 0.00 | 0.00 | 0.00 | 37 | 1010.0 |
| 20260503203303 | 56 | 263 | 5.0 | 16.0 | 0.00 | 0.00 | 0.00 | 36 | 1009.9 |
| 20260503202803 | 58 | 316 | 3.0 | 15.0 | 0.00 | 0.00 | 0.00 | 35 | 1010.0 |
| 20260503202304 | 55 | 281 | 9.0 | 23.0 | 0.00 | 0.00 | 0.00 | 36 | 1010.0 |
| 20260503201803 | 56 | 267 | 8.0 | 20.0 | 0.00 | 0.00 | 0.00 | 35 | 1010.2 |
| 20260503201303 | 56 | 294 | 9.0 | 20.0 | 0.00 | 0.00 | 0.00 | 34 | 1010.1 |
| 20260503200805 | 56 | 24 | 3.0 | 24.0 | 0.00 | 0.00 | 0.00 | 35 | 1010.1 |
| 20260503195803 | 56 | 298 | 9.0 | 18.0 | 0.00 | 0.00 | 0.00 | 34 | 1010.3 |
| 20260503195304 | 55 | 243 | 7.0 | 22.0 | 0.00 | 0.00 | 0.00 | 33 | 1010.5 |
| 20260503194303 | 54 | 304 | 6.0 | 22.0 | 0.00 | 0.00 | 0.00 | 32 | 1010.3 |
| 20260503193804 | 55 | 306 | 11.0 | 22.0 | 0.00 | 0.00 | 0.00 | 34 | 1010.5 |
| 20260503193304 | 55 | 308 | 7.0 | 20.0 | 0.00 | 0.00 | 0.00 | 36 | 1010.5 |
| 20260503192804 | 55 | 282 | 5.0 | 15.0 | 0.00 | 0.00 | 0.00 | 36 | 1010.4 |
| 20260503192305 | 55 | 274 | 6.0 | 20.0 | 0.00 | 0.00 | 0.00 | 34 | 1010.5 |
| 20260503191803 | 56 | 246 | 10.0 | 22.0 | 0.00 | 0.00 | 0.00 | 35 | 1010.6 |
| 20260503191303 | 55 | 271 | 13.0 | 24.0 | 0.00 | 0.00 | 0.00 | 35 | 1010.6 |
| 20260503190804 | 55 | 245 | 13.0 | 24.0 | 0.00 | 0.00 | 0.00 | 35 | 1010.6 |
| 20260503190306 | 55 | 267 | 8.0 | 22.0 | 0.00 | 0.00 | 0.00 | 35 | 1010.7 |
| 20260503185805 | 55 | 251 | 10.0 | 17.0 | 0.00 | 0.00 | 0.00 | 35 | 1010.6 |
| 20260503185304 | 55 | 280 | 12.0 | 22.0 | 0.00 | 0.00 | 0.00 | 35 | 1010.7 |
| 20260503184804 | 56 | 279 | 11.0 | 22.0 | 0.00 | 0.00 | 0.00 | 33 | 1010.7 |
| 20260503184304 | 56 | 273 | 9.0 | 22.0 | 0.00 | 0.00 | 0.00 | 33 | 1010.7 |
| 20260503183803 | 56 | 257 | 10.0 | 22.0 | 0.00 | 0.00 | 0.00 | 32 | 1010.8 |
| 20260503183303 | 55 | 287 | 6.0 | 23.0 | 0.00 | 0.00 | 0.00 | 31 | 1010.8 |
| 20260503182803 | 56 | 258 | 12.0 | 23.0 | 0.00 | 0.00 | 0.00 | 31 | 1011.0 |
| 20260503182305 | 56 | 240 | 3.0 | 15.0 | 0.00 | 0.00 | 0.00 | 32 | 1011.1 |
| 20260503181803 | 55 | 257 | 12.0 | 22.0 | 0.00 | 0.00 | 0.00 | 32 | 1011.1 |
| 20260503181304 | 55 | 252 | 15.0 | 23.0 | 0.00 | 0.00 | 0.00 | 32 | 1011.0 |
| 20260503180303 | 55 | 285 | 9.0 | 20.0 | 0.00 | 0.00 | 0.00 | 32 | 1011.2 |
| 20260503175803 | 56 | 216 | 6.0 | 20.0 | 0.00 | 0.00 | 0.00 | 34 | 1011.2 |
| 20260503175305 | 54 | 262 | 3.0 | 21.0 | 0.00 | 0.00 | 0.00 | 32 | 1011.4 |
| 20260503173803 | 54 | 256 | 8.0 | 20.0 | 0.00 | 0.00 | 0.00 | 31 | 1011.5 |
| 20260503172803 | 54 | 277 | 4.0 | 22.0 | 0.00 | 0.00 | 0.00 | 30 | 1011.7 |
| 20260503172305 | 53 | 319 | 6.0 | 22.0 | 0.00 | 0.00 | 0.00 | 33 | 1011.6 |
| 20260503171804 | 54 | 257 | 7.0 | 18.0 | 0.00 | 0.00 | 0.00 | 32 | 1011.8 |
| 20260503170804 | 54 | 300 | 3.0 | 24.0 | 0.00 | 0.00 | 0.00 | 34 | 1011.6 |
| 20260503170303 | 53 | 248 | 17.0 | 24.0 | 0.00 | 0.00 | 0.00 | 33 | 1012.0 |
| 20260503150804 | 49 | 274 | 7.0 | 17.0 | 0.00 | 0.00 | 0.00 | 33 | 1013.4 |
| 20260503150303 | 49 | 324 | 4.0 | 17.0 | 0.00 | 0.00 | 0.00 | 34 | 1013.3 |
| 20260503130805 | 44 | 257 | 5.0 | 13.0 | 0.00 | 0.00 | 0.00 | 59 | 1014.0 |
| 20260503130303 | 44 | 273 | 9.0 | 13.0 | 0.00 | 0.00 | 0.00 | 60 | 1014.0 |
| 20260503110804 | 39 | 259 | 5.0 | 10.0 | 0.00 | 0.00 | 0.00 | 78 | 1013.5 |
| 20260503110303 | 39 | 247 | 3.0 | 7.0 | 0.00 | 0.00 | 0.00 | 79 | 1013.5 |
| 20260503090304 | 39 | 260 | 2.0 | 5.0 | 0.00 | 0.00 | 0.00 | 73 | 1013.2 |
| 20260503080303 | 40 | 247 | 2.0 | 6.0 | 0.00 | 0.00 | 0.00 | 76 | 1013.2 |
| 20260503072803 | 40 | 251 | 2.0 | 5.0 | 0.00 | 0.00 | 0.00 | 78 | 1013.2 |
| 20260503072305 | 40 | 261 | 2.0 | 5.0 | 0.00 | 0.00 | 0.00 | 78 | 1013.3 |
| 20260503071804 | 40 | 141 | 1.0 | 3.0 | 0.00 | 0.00 | 0.00 | 78 | 1013.2 |
| 20260503071305 | 40 | 230 | 2.0 | 5.0 | 0.00 | 0.00 | 0.00 | 78 | 1013.3 |
| 20260503070803 | 40 | 309 | 2.0 | 5.0 | 0.00 | 0.00 | 0.00 | 78 | 1013.2 |
| 20260503070304 | 40 | 241 | 2.0 | 3.0 | 0.00 | 0.00 | 0.00 | 78 | 1013.2 |